Location: Budapest
(47.4979°N, 19.0402°E)
Time: 17:49:57
(UTC+01:00)

Tiangong 1 - Pass Details

Date: 08 October 2017
Orbit: 275 x 302 km, 42.8° (Epoch: 14 December)

Event Time Altitude Azimuth Distance (km) Brightness Sun altitude
Rises 20:15:08 0° 255° (WSW) 2,051 5.7 -21.9°
Reaches altitude 10° 20:17:16 10° 243° (WSW) 1,205 4.2 -22.3°
Enters shadow 20:17:59 15° 235° (SW) 952 3.5 -22.4°
